Time,TemperatureF,DewpointF,PressureIn,WindDirection,WindDirectionDegrees,WindSpeedMPH,WindSpeedGustMPH,Humidity,HourlyPrecipIn,Conditions,Clouds,dailyrainin,SolarRadiationWatts/m^2,SoftwareType,DateUTC
2013-04-07 00:00:00,60.0,57.4,30.10,NNE,14,1.1,1.1,91,0.00,SCT,,0.00,0.0,WeatherDisplay:10.37,2013-04-07 04:00:00,
2013-04-07 00:05:00,59.9,57.3,30.10,NNE,14,1.1,1.1,91,0.00,BKN,,0.00,0.0,WeatherDisplay:10.37,2013-04-07 04:05:00,
2013-04-07 00:10:00,59.9,57.3,30.10,NNE,14,0.0,0.2,91,0.00,BKN,,0.00,0.0,WeatherDisplay:10.37,2013-04-07 04:10:00,
2013-04-07 00:15:00,59.9,57.3,30.10,NNE,14,2.3,2.3,91,0.00,BKN,,0.00,0.0,WeatherDisplay:10.37,2013-04-07 04:15:00,
2013-04-07 00:20:00,59.9,57.3,30.10,NNE,14,1.1,1.1,91,0.00,BKN,,0.00,0.0,WeatherDisplay:10.37,2013-04-07 04:20:00,
2013-04-07 00:25:00,59.7,57.1,30.10,NNE,14,0.0,0.0,91,0.00,BKN,,0.00,0.0,WeatherDisplay:10.37,2013-04-07 04:25:00,
2013-04-07 00:30:00,59.6,57.0,30.09,NNE,14,0.0,0.0,91,0.00,BKN,,0.00,0.0,WeatherDisplay:10.37,2013-04-07 04:30:00,
2013-04-07 00:35:00,59.7,57.1,30.09,NNE,14,0.0,0.0,91,0.00,BKN,,0.00,0.0,WeatherDisplay:10.37,2013-04-07 04:35:00,
2013-04-07 00:41:00,59.7,57.4,30.09,NNE,14,0.0,0.0,92,0.00,BKN,,0.00,0.0,WeatherDisplay:10.37,2013-04-07 04:41:00,
2013-04-07 00:46:00,59.8,57.5,30.09,NNE,14,0.0,0.0,92,0.00,BKN,,0.00,0.0,WeatherDisplay:10.37,2013-04-07 04:46:00,
2013-04-07 00:51:00,59.8,57.2,30.09,NNE,14,0.0,0.0,91,0.00,BKN,,0.00,0.0,WeatherDisplay:10.37,2013-04-07 04:51:00,
2013-04-07 00:56:00,59.6,57.3,30.09,NNE,14,0.0,0.0,92,0.00,BKN,,0.00,0.0,WeatherDisplay:10.37,2013-04-07 04:56:00,
2013-04-07 01:01:00,59.6,57.3,30.09,NNE,14,0.0,0.2,92,0.00,BKN,,0.00,0.0,WeatherDisplay:10.37,2013-04-07 05:01:00,
2013-04-07 01:06:00,59.6,57.3,30.09,NNE,14,1.4,1.4,92,0.00,BKN,,0.00,0.0,WeatherDisplay:10.37,2013-04-07 05:06:00,
2013-04-07 01:11:00,59.5,57.2,30.09,NNE,14,0.0,0.0,92,0.00,BKN,,0.00,0.0,WeatherDisplay:10.37,2013-04-07 05:11:00,
2013-04-07 01:16:00,59.6,57.3,30.08,NNE,14,0.0,0.0,92,0.00,BKN,,0.00,0.0,WeatherDisplay:10.37,2013-04-07 05:16:00,
2013-04-07 01:21:00,59.7,57.4,30.08,NNE,14,0.0,0.0,92,0.00,BKN,,0.00,0.0,WeatherDisplay:10.37,2013-04-07 05:21:00,
2013-04-07 01:26:00,59.7,57.4,30.08,NNE,14,0.0,0.0,92,0.00,BKN,,0.00,0.0,WeatherDisplay:10.37,2013-04-07 05:26:00,
2013-04-07 01:31:00,59.8,57.5,30.07,NNE,14,0.0,0.0,92,0.00,BKN,,0.00,0.0,WeatherDisplay:10.37,2013-04-07 05:31:00,
2013-04-07 01:36:00,60.0,57.7,30.07,NNE,14,0.0,0.0,92,0.00,BKN,,0.00,0.0,WeatherDisplay:10.37,2013-04-07 05:36:00,
2013-04-07 01:41:00,60.0,57.7,30.07,NNE,14,0.0,0.0,92,0.00,BKN,,0.00,0.0,WeatherDisplay:10.37,2013-04-07 05:41:00,
2013-04-07 01:46:00,60.2,57.9,30.07,NNE,14,0.0,0.0,92,0.00,BKN,,0.00,0.0,WeatherDisplay:10.37,2013-04-07 05:46:00,
2013-04-07 01:52:00,60.1,57.8,30.07,NNE,14,0.0,0.0,92,0.00,BKN,,0.00,0.0,WeatherDisplay:10.37,2013-04-07 05:52:00,
2013-04-07 01:57:00,60.2,57.9,30.07,NNE,14,0.0,0.0,92,0.00,BKN,,0.00,0.0,WeatherDisplay:10.37,2013-04-07 05:57:00,
2013-04-07 02:02:00,60.1,57.8,30.07,NNE,14,2.3,2.3,92,0.00,BKN,,0.00,0.0,WeatherDisplay:10.37,2013-04-07 06:02:00,
2013-04-07 02:07:00,59.8,57.2,30.07,NNE,14,0.0,0.0,91,0.00,BKN,,0.00,0.0,WeatherDisplay:10.37,2013-04-07 06:07:00,
2013-04-07 02:12:00,59.4,56.8,30.07,NNE,14,2.8,2.8,91,0.00,BKN,,0.00,0.0,WeatherDisplay:10.37,2013-04-07 06:12:00,
2013-04-07 02:17:00,59.4,57.1,30.06,NNE,14,0.0,0.0,92,0.00,BKN,,0.00,0.0,WeatherDisplay:10.37,2013-04-07 06:17:00,
2013-04-07 02:22:00,59.3,57.0,30.06,NNE,14,0.0,0.0,92,0.00,BKN,,0.00,0.0,WeatherDisplay:10.37,2013-04-07 06:22:00,
2013-04-07 02:27:00,58.9,56.6,30.06,NNE,14,1.1,0.0,92,0.00,BKN,,0.00,0.0,WeatherDisplay:10.37,2013-04-07 06:27:00,
2013-04-07 02:32:00,59.0,56.7,30.05,NNE,14,0.0,0.0,92,0.00,BKN,,0.00,0.0,WeatherDisplay:10.37,2013-04-07 06:32:00,
2013-04-07 02:37:00,58.7,56.4,30.05,NNE,14,2.3,0.0,92,0.00,BKN,,0.00,0.0,WeatherDisplay:10.37,2013-04-07 06:37:00,
2013-04-07 02:42:00,58.9,56.6,30.05,NNE,14,0.0,0.0,92,0.00,BKN,,0.00,0.0,WeatherDisplay:10.37,2013-04-07 06:42:00,
2013-04-07 02:47:00,58.7,56.4,30.04,NNE,14,1.1,0.0,92,0.00,BKN,,0.00,0.0,WeatherDisplay:10.37,2013-04-07 06:47:00,
2013-04-07 02:52:00,58.8,56.8,30.04,NNE,14,0.0,0.0,93,0.00,BKN,,0.00,0.0,WeatherDisplay:10.37,2013-04-07 06:52:00,
2013-04-07 02:57:00,58.6,56.6,30.04,NNE,14,0.0,0.0,93,0.00,BKN,,0.00,0.0,WeatherDisplay:10.37,2013-04-07 06:57:00,
2013-04-07 03:02:00,58.3,56.0,30.04,NNE,14,0.0,0.0,92,0.00,BKN,,0.00,0.0,WeatherDisplay:10.37,2013-04-07 07:02:00,
2013-04-07 03:07:00,58.4,56.4,30.04,NNE,14,0.0,0.0,93,0.00,BKN,,0.00,0.0,WeatherDisplay:10.37,2013-04-07 07:07:00,
2013-04-07 03:12:00,58.5,56.5,30.04,NNE,14,0.0,0.0,93,0.00,BKN,,0.00,0.0,WeatherDisplay:10.37,2013-04-07 07:12:00,
2013-04-07 03:17:00,58.6,56.6,30.04,NNE,14,0.0,0.0,93,0.00,BKN,,0.00,0.0,WeatherDisplay:10.37,2013-04-07 07:17:00,
2013-04-07 03:22:00,58.7,56.7,30.04,NNE,14,0.0,0.0,93,0.00,BKN,,0.00,0.0,WeatherDisplay:10.37,2013-04-07 07:22:00,
2013-04-07 03:27:00,58.8,56.8,30.04,NNE,14,0.0,0.0,93,0.00,BKN,,0.00,0.0,WeatherDisplay:10.37,2013-04-07 07:27:00,
2013-04-07 03:32:00,58.6,56.6,30.04,NNE,14,0.0,0.0,93,0.00,BKN,,0.00,0.0,WeatherDisplay:10.37,2013-04-07 07:32:00,
2013-04-07 03:37:00,58.2,56.2,30.04,NNE,14,0.0,0.0,93,0.00,BKN,,0.00,0.0,WeatherDisplay:10.37,2013-04-07 07:37:00,
2013-04-07 03:43:00,58.1,56.1,30.04,NNE,14,0.0,0.0,93,0.00,BKN,,0.00,0.0,WeatherDisplay:10.37,2013-04-07 07:43:00,
2013-04-07 03:48:00,58.1,56.1,30.04,NNE,14,0.0,0.0,93,0.00,BKN,,0.00,0.0,WeatherDisplay:10.37,2013-04-07 07:48:00,
2013-04-07 03:53:00,57.8,55.8,30.04,NNE,14,0.0,0.3,93,0.00,BKN,,0.00,0.0,WeatherDisplay:10.37,2013-04-07 07:53:00,
2013-04-07 03:58:00,58.1,56.4,30.04,NNE,14,0.0,0.0,94,0.00,BKN,,0.00,0.0,WeatherDisplay:10.37,2013-04-07 07:58:00,
2013-04-07 04:04:00,58.0,56.0,30.04,NNE,14,0.0,0.0,93,0.00,BKN,,0.00,0.0,WeatherDisplay:10.37,2013-04-07 08:04:00,
2013-04-07 04:10:00,57.7,55.7,30.04,NNE,14,0.0,0.0,93,0.00,BKN,,0.00,0.0,WeatherDisplay:10.37,2013-04-07 08:10:00,
2013-04-07 04:15:00,57.5,55.5,30.04,NNE,14,0.0,0.0,93,0.00,BKN,,0.00,0.0,WeatherDisplay:10.37,2013-04-07 08:15:00,
2013-04-07 04:20:00,57.5,55.5,30.04,NNE,14,0.0,0.0,93,0.00,BKN,,0.00,0.0,WeatherDisplay:10.37,2013-04-07 08:20:00,
2013-04-07 04:25:00,57.5,55.5,30.04,NNE,14,0.0,0.0,93,0.00,BKN,,0.00,0.0,WeatherDisplay:10.37,2013-04-07 08:25:00,
2013-04-07 04:35:00,57.5,55.8,30.04,NNE,14,0.0,0.0,94,0.00,BKN,,0.00,0.0,WeatherDisplay:10.37,2013-04-07 08:35:00,
2013-04-07 04:40:00,57.3,55.6,30.04,NNE,14,0.0,0.0,94,0.00,BKN,,0.00,0.0,WeatherDisplay:10.37,2013-04-07 08:40:00,
2013-04-07 04:45:00,57.4,55.7,30.04,NNE,14,0.0,0.0,94,0.00,BKN,,0.00,0.0,WeatherDisplay:10.37,2013-04-07 08:45:00,
2013-04-07 04:50:00,57.1,55.1,30.04,NNE,14,0.0,0.0,93,0.00,BKN,,0.00,0.0,WeatherDisplay:10.37,2013-04-07 08:50:00,
2013-04-07 04:56:00,56.9,55.2,30.04,NNE,14,0.0,0.0,94,0.00,BKN,,0.00,0.0,WeatherDisplay:10.37,2013-04-07 08:56:00,
2013-04-07 05:01:00,56.8,55.1,30.04,NNE,14,0.0,0.0,94,0.00,BKN,,0.00,0.0,WeatherDisplay:10.37,2013-04-07 09:01:00,
2013-04-07 05:06:00,57.1,55.4,30.04,NNE,14,0.0,0.0,94,0.00,BKN,,0.00,0.0,WeatherDisplay:10.37,2013-04-07 09:06:00,
2013-04-07 05:11:00,57.0,55.3,30.04,NNE,14,0.0,0.0,94,0.00,BKN,,0.00,0.0,WeatherDisplay:10.37,2013-04-07 09:11:00,
2013-04-07 05:16:00,56.8,55.1,30.05,NNE,14,0.0,0.0,94,0.00,BKN,,0.00,0.0,WeatherDisplay:10.37,2013-04-07 09:16:00,
2013-04-07 05:21:00,56.6,54.9,30.05,NNE,14,0.0,0.0,94,0.00,BKN,,0.00,0.0,WeatherDisplay:10.37,2013-04-07 09:21:00,
2013-04-07 05:27:00,56.6,54.9,30.05,NNE,14,0.0,0.0,94,0.00,BKN,,0.00,0.0,WeatherDisplay:10.37,2013-04-07 09:27:00,
2013-04-07 05:32:00,56.7,55.0,30.05,NNE,14,0.0,0.0,94,0.00,BKN,,0.00,0.0,WeatherDisplay:10.37,2013-04-07 09:32:00,
2013-04-07 05:37:00,56.7,55.0,30.05,NNE,14,0.0,0.0,94,0.00,BKN,,0.00,0.0,WeatherDisplay:10.37,2013-04-07 09:37:00,
2013-04-07 05:42:00,56.6,54.9,30.05,NNE,14,0.0,0.0,94,0.00,BKN,,0.00,0.0,WeatherDisplay:10.37,2013-04-07 09:42:00,
2013-04-07 05:47:00,56.7,55.0,30.05,NNE,14,0.0,0.0,94,0.00,BKN,,0.00,0.0,WeatherDisplay:10.37,2013-04-07 09:47:00,
2013-04-07 05:52:00,56.8,55.1,30.05,NNE,14,0.0,0.0,94,0.00,BKN,,0.00,0.0,WeatherDisplay:10.37,2013-04-07 09:52:00,
2013-04-07 05:57:00,56.7,55.0,30.05,NNE,14,0.0,0.0,94,0.00,BKN,,0.00,0.0,WeatherDisplay:10.37,2013-04-07 09:57:00,
2013-04-07 06:02:00,56.7,55.0,30.06,NNE,14,0.0,0.0,94,0.00,BKN,,0.00,0.0,WeatherDisplay:10.37,2013-04-07 10:02:00,
2013-04-07 06:07:00,56.9,55.2,30.06,NNE,14,0.0,0.0,94,0.00,BKN,,0.00,0.0,WeatherDisplay:10.37,2013-04-07 10:07:00,
2013-04-07 06:12:00,57.1,55.4,30.06,NNE,14,0.0,0.0,94,0.00,BKN,,0.00,0.0,WeatherDisplay:10.37,2013-04-07 10:12:00,
2013-04-07 06:17:00,56.9,55.2,30.06,NNE,14,0.0,0.0,94,0.00,BKN,,0.00,0.0,WeatherDisplay:10.37,2013-04-07 10:17:00,
2013-04-07 06:23:00,56.9,55.2,30.06,NNE,14,0.0,0.0,94,0.00,BKN,,0.00,0.0,WeatherDisplay:10.37,2013-04-07 10:23:00,
2013-04-07 06:28:00,56.6,54.9,30.06,NNE,14,0.0,0.0,94,0.00,BKN,,0.00,0.0,WeatherDisplay:10.37,2013-04-07 10:28:00,
2013-04-07 06:33:00,56.8,55.1,30.07,NNE,14,0.0,0.0,94,0.00,BKN,,0.00,0.0,WeatherDisplay:10.37,2013-04-07 10:33:00,
2013-04-07 06:38:00,57.2,55.5,30.07,NNE,14,0.0,0.0,94,0.00,BKN,,0.00,0.0,WeatherDisplay:10.37,2013-04-07 10:38:00,
2013-04-07 06:43:00,57.0,55.3,30.07,NNE,14,0.0,0.0,94,0.00,BKN,,0.00,0.0,WeatherDisplay:10.37,2013-04-07 10:43:00,
2013-04-07 06:48:00,57.3,55.6,30.07,NNE,14,0.0,0.0,94,0.00,BKN,,0.00,0.0,WeatherDisplay:10.37,2013-04-07 10:48:00,
2013-04-07 06:53:00,57.2,55.5,30.07,NNE,14,0.0,0.0,94,0.00,BKN,,0.00,0.0,WeatherDisplay:10.37,2013-04-07 10:53:00,
2013-04-07 06:58:00,57.1,55.4,30.07,NNE,14,0.0,0.0,94,0.00,BKN,,0.00,0.0,WeatherDisplay:10.37,2013-04-07 10:58:00,
2013-04-07 07:03:00,57.5,55.8,30.07,NNE,14,0.0,0.0,94,0.00,BKN,,0.00,0.0,WeatherDisplay:10.37,2013-04-07 11:03:00,
2013-04-07 07:08:00,57.6,55.9,30.07,NNE,14,0.0,0.0,94,0.00,BKN,,0.00,0.0,WeatherDisplay:10.37,2013-04-07 11:08:00,
2013-04-07 07:13:00,57.7,56.0,30.07,NNE,14,0.0,0.0,94,0.00,BKN,,0.00,0.0,WeatherDisplay:10.37,2013-04-07 11:13:00,
2013-04-07 07:18:00,57.7,56.0,30.08,NNE,14,1.1,1.1,94,0.00,BKN,,0.00,9.0,WeatherDisplay:10.37,2013-04-07 11:18:00,
2013-04-07 07:23:00,58.0,56.3,30.08,NNE,14,0.0,0.0,94,0.00,BKN,,0.00,12.0,WeatherDisplay:10.37,2013-04-07 11:23:00,
2013-04-07 07:28:00,57.8,56.1,30.08,NNE,14,0.0,0.0,94,0.00,BKN,,0.00,14.0,WeatherDisplay:10.37,2013-04-07 11:28:00,
2013-04-07 07:33:00,57.8,56.1,30.09,NNE,14,0.0,0.0,94,0.00,BKN,,0.00,21.0,WeatherDisplay:10.37,2013-04-07 11:33:00,
2013-04-07 07:38:00,57.8,56.1,30.09,NNE,14,0.0,0.0,94,0.00,BKN,,0.00,28.0,WeatherDisplay:10.37,2013-04-07 11:38:00,
2013-04-07 07:43:00,57.9,56.2,30.09,NNE,14,0.0,0.0,94,0.00,BKN,,0.00,39.0,WeatherDisplay:10.37,2013-04-07 11:43:00,
2013-04-07 07:48:00,58.0,56.3,30.09,NNE,14,0.0,0.0,94,0.00,BKN,,0.00,28.0,WeatherDisplay:10.37,2013-04-07 11:48:00,
2013-04-07 07:53:00,58.0,56.3,30.09,NNE,14,1.4,1.4,94,0.00,BKN,,0.00,28.0,WeatherDisplay:10.37,2013-04-07 11:53:00,
2013-04-07 07:58:00,58.3,56.9,30.09,NNE,14,0.0,0.0,95,0.00,BKN,,0.00,30.0,WeatherDisplay:10.37,2013-04-07 11:58:00,
2013-04-07 08:04:00,58.6,56.9,30.10,NNE,14,0.0,0.0,94,0.00,BKN,,0.00,44.0,WeatherDisplay:10.37,2013-04-07 12:04:00,
2013-04-07 08:09:00,59.2,57.8,30.10,NNE,14,0.0,0.0,95,0.00,BKN,,0.00,105.0,WeatherDisplay:10.37,2013-04-07 12:09:00,
2013-04-07 08:15:00,59.7,58.3,30.10,NNE,14,0.0,0.0,95,0.00,BKN,,0.00,118.0,WeatherDisplay:10.37,2013-04-07 12:15:00,
2013-04-07 08:20:00,60.7,59.3,30.10,NNE,14,0.0,0.0,95,0.00,BKN,,0.00,141.0,WeatherDisplay:10.37,2013-04-07 12:20:00,
2013-04-07 08:25:00,61.4,59.7,30.10,NNE,14,0.0,0.0,94,0.00,BKN,,0.00,155.0,WeatherDisplay:10.37,2013-04-07 12:25:00,
2013-04-07 08:30:00,62.0,60.3,30.10,NNE,14,0.0,0.0,94,0.00,BKN,,0.00,257.0,WeatherDisplay:10.37,2013-04-07 12:30:00,
2013-04-07 08:35:00,63.0,61.2,30.10,NNE,14,1.1,1.1,94,0.00,BKN,,0.00,153.0,WeatherDisplay:10.37,2013-04-07 12:35:00,
2013-04-07 08:40:00,63.6,61.5,30.10,NNE,14,0.0,0.0,93,0.00,BKN,,0.00,174.0,WeatherDisplay:10.37,2013-04-07 12:40:00,
2013-04-07 08:45:00,64.1,62.0,30.11,NNE,14,1.1,1.1,93,0.00,BKN,,0.00,230.0,WeatherDisplay:10.37,2013-04-07 12:45:00,
2013-04-07 08:50:00,65.0,62.6,30.11,NNE,14,0.0,0.2,92,0.00,BKN,,0.00,292.0,WeatherDisplay:10.37,2013-04-07 12:50:00,
2013-04-07 08:55:00,65.9,62.9,30.11,NNE,17,4.6,4.6,90,0.00,BKN,,0.00,230.0,WeatherDisplay:10.37,2013-04-07 12:55:00,
2013-04-07 09:00:00,66.1,62.8,30.11,NNE,17,1.4,1.4,89,0.00,BKN,,0.00,165.0,WeatherDisplay:10.37,2013-04-07 13:00:00,
2013-04-07 09:05:00,66.3,62.6,30.11,NNE,17,0.0,0.9,88,0.00,BKN,,0.00,243.0,WeatherDisplay:10.37,2013-04-07 13:05:00,
2013-04-07 09:10:00,67.0,63.3,30.11,NNE,18,2.3,2.3,88,0.00,BKN,,0.00,322.0,WeatherDisplay:10.37,2013-04-07 13:10:00,
2013-04-07 09:15:00,67.7,63.7,30.12,NNE,17,4.6,4.6,87,0.00,BKN,,0.00,255.0,WeatherDisplay:10.37,2013-04-07 13:15:00,
2013-04-07 09:20:00,67.9,63.2,30.12,NNE,17,4.6,4.6,85,0.00,BKN,,0.00,197.0,WeatherDisplay:10.37,2013-04-07 13:20:00,
2013-04-07 09:25:00,68.1,63.8,30.12,NNE,17,5.5,5.5,86,0.00,BKN,,0.00,225.0,WeatherDisplay:10.37,2013-04-07 13:25:00,
2013-04-07 09:30:00,67.9,63.2,30.12,NNE,19,4.6,4.6,85,0.00,BKN,,0.00,299.0,WeatherDisplay:10.37,2013-04-07 13:30:00,
2013-04-07 09:35:00,68.3,63.3,30.12,NNE,19,8.1,8.1,84,0.00,BKN,,0.00,248.0,WeatherDisplay:10.37,2013-04-07 13:35:00,
2013-04-07 09:41:00,68.7,63.7,30.12,NNE,18,5.8,6.2,84,0.00,BKN,,0.00,241.0,WeatherDisplay:10.37,2013-04-07 13:41:00,
2013-04-07 09:46:00,69.2,63.8,30.13,NNE,18,4.6,4.6,83,0.00,BKN,,0.00,299.0,WeatherDisplay:10.37,2013-04-07 13:46:00,
2013-04-07 09:51:00,69.4,63.7,30.13,NNE,21,0.0,0.0,82,0.00,BKN,,0.00,316.0,WeatherDisplay:10.37,2013-04-07 13:51:00,
2013-04-07 09:57:00,70.0,63.5,30.13,NNE,18,8.1,8.1,80,0.00,BKN,,0.00,325.0,WeatherDisplay:10.37,2013-04-07 13:57:00,
2013-04-07 10:02:00,70.2,63.7,30.13,NNE,19,1.1,1.1,80,0.00,BKN,,0.00,290.0,WeatherDisplay:10.37,2013-04-07 14:02:00,
2013-04-07 10:07:00,70.4,62.8,30.13,NNE,22,1.1,1.1,77,0.00,BKN,,0.00,301.0,WeatherDisplay:10.37,2013-04-07 14:07:00,
2013-04-07 10:12:00,70.7,63.1,30.13,NNE,22,5.8,5.8,77,0.00,BKN,,0.00,441.0,WeatherDisplay:10.37,2013-04-07 14:12:00,
2013-04-07 10:17:00,71.6,64.0,30.13,NNE,22,6.9,6.9,77,0.00,BKN,,0.00,373.0,WeatherDisplay:10.37,2013-04-07 14:17:00,
2013-04-07 10:22:00,71.9,64.3,30.13,NNE,23,4.6,4.6,77,0.00,BKN,,0.00,448.0,WeatherDisplay:10.37,2013-04-07 14:22:00,
2013-04-07 10:27:00,72.6,64.2,30.13,NNE,18,11.5,11.5,75,0.00,BKN,,0.00,422.0,WeatherDisplay:10.37,2013-04-07 14:27:00,
2013-04-07 10:32:00,72.5,62.6,30.13,NNE,18,11.5,11.5,71,0.00,BKN,,0.00,446.0,WeatherDisplay:10.37,2013-04-07 14:32:00,
2013-04-07 10:37:00,72.6,62.7,30.13,NNE,20,9.2,9.2,71,0.00,BKN,,0.00,519.0,WeatherDisplay:10.37,2013-04-07 14:37:00,
2013-04-07 10:42:00,73.0,62.6,30.13,NNE,17,11.5,11.5,70,0.00,BKN,,0.00,483.0,WeatherDisplay:10.37,2013-04-07 14:42:00,
2013-04-07 10:47:00,73.7,63.3,30.13,NNE,23,6.9,6.9,70,0.00,BKN,,0.00,526.0,WeatherDisplay:10.37,2013-04-07 14:47:00,
2013-04-07 10:52:00,73.7,62.1,30.13,NNE,23,11.5,11.5,67,0.00,BKN,,0.00,350.0,WeatherDisplay:10.37,2013-04-07 14:52:00,
2013-04-07 10:57:00,73.2,62.0,30.13,NNE,22,5.5,6.4,68,0.00,BKN,,0.00,392.0,WeatherDisplay:10.37,2013-04-07 14:57:00,
2013-04-07 11:02:00,72.9,60.9,30.14,NNE,19,9.6,10.6,66,0.00,BKN,,0.00,408.0,WeatherDisplay:10.37,2013-04-07 15:02:00,
2013-04-07 11:07:00,72.8,61.2,30.14,NNE,22,9.2,9.2,67,0.00,BKN,,0.00,255.0,WeatherDisplay:10.37,2013-04-07 15:07:00,
2013-04-07 11:12:00,73.3,62.1,30.14,NNE,23,6.9,8.8,68,0.00,BKN,,0.00,700.0,WeatherDisplay:10.37,2013-04-07 15:12:00,
2013-04-07 11:17:00,75.7,63.5,30.13,NNE,24,11.0,11.0,66,0.00,BKN,,0.00,742.0,WeatherDisplay:10.37,2013-04-07 15:17:00,
2013-04-07 11:22:00,75.9,61.9,30.13,NNE,18,11.5,11.5,62,0.00,BKN,,0.00,633.0,WeatherDisplay:10.37,2013-04-07 15:22:00,
2013-04-07 11:27:00,76.0,62.9,30.13,NNE,18,5.8,5.8,64,0.00,BKN,,0.00,893.0,WeatherDisplay:10.37,2013-04-07 15:27:00,
2013-04-07 11:33:00,77.6,62.6,30.13,NNE,20,6.9,9.4,60,0.00,BKN,,0.00,921.0,WeatherDisplay:10.37,2013-04-07 15:33:00,
2013-04-07 11:38:00,78.4,62.9,30.13,NNE,20,8.3,8.3,59,0.00,BKN,,0.00,940.0,WeatherDisplay:10.37,2013-04-07 15:38:00,
2013-04-07 11:43:00,77.2,60.8,30.13,NNE,19,9.2,9.2,57,0.00,BKN,,0.00,439.0,WeatherDisplay:10.37,2013-04-07 15:43:00,
2013-04-07 11:48:00,77.5,62.0,30.13,NNE,22,13.8,13.8,59,0.00,BKN,,0.00,338.0,WeatherDisplay:10.37,2013-04-07 15:48:00,
2013-04-07 11:53:00,76.5,61.1,30.13,NNE,19,13.8,13.8,59,0.00,BKN,,0.00,272.0,WeatherDisplay:10.37,2013-04-07 15:53:00,
2013-04-07 11:58:00,75.0,60.6,30.13,NNE,19,8.1,8.1,61,0.00,BKN,,0.00,244.0,WeatherDisplay:10.37,2013-04-07 15:58:00,
2013-04-07 12:03:00,75.1,61.2,30.13,NNE,17,4.1,4.1,62,0.00,BKN,,0.00,265.0,WeatherDisplay:10.37,2013-04-07 16:03:00,
2013-04-07 12:08:00,74.5,60.6,30.13,NNE,17,8.3,8.3,62,0.00,BKN,,0.00,302.0,WeatherDisplay:10.37,2013-04-07 16:08:00,
2013-04-07 12:13:00,74.4,61.0,30.13,NNE,17,12.7,12.7,63,0.00,BKN,,0.00,385.0,WeatherDisplay:10.37,2013-04-07 16:13:00,
2013-04-07 12:18:00,75.3,61.4,30.13,NNE,17,8.3,8.3,62,0.00,BKN,,0.00,571.0,WeatherDisplay:10.37,2013-04-07 16:18:00,
2013-04-07 12:23:00,77.0,62.0,30.13,NNE,19,9.2,9.2,60,0.00,BKN,,0.00,1106.0,WeatherDisplay:10.37,2013-04-07 16:23:00,
2013-04-07 12:28:00,78.3,62.3,30.13,NNE,24,9.2,9.2,58,0.00,BKN,,0.00,1107.0,WeatherDisplay:10.37,2013-04-07 16:28:00,
2013-04-07 12:33:00,78.9,62.4,30.13,NNE,18,11.0,11.0,57,0.00,BKN,,0.00,1129.0,WeatherDisplay:10.37,2013-04-07 16:33:00,
2013-04-07 12:38:00,78.8,61.8,30.13,NNE,21,12.7,12.7,56,0.00,BKN,,0.00,1123.0,WeatherDisplay:10.37,2013-04-07 16:38:00,
2013-04-07 12:44:00,78.0,61.0,30.12,NNE,18,9.2,9.2,56,0.00,BKN,,0.00,1067.0,WeatherDisplay:10.37,2013-04-07 16:44:00,
2013-04-07 12:49:00,78.8,61.8,30.12,NNE,19,11.5,11.5,56,0.00,BKN,,0.00,1078.0,WeatherDisplay:10.37,2013-04-07 16:49:00,
2013-04-07 12:54:00,79.7,63.1,30.12,NNE,17,9.6,9.6,57,0.00,BKN,,0.00,1136.0,WeatherDisplay:10.37,2013-04-07 16:54:00,
2013-04-07 12:59:00,80.7,62.0,30.12,NNE,22,11.5,11.5,53,0.00,BKN,,0.00,1179.0,WeatherDisplay:10.37,2013-04-07 16:59:00,
2013-04-07 13:04:00,79.4,61.8,30.12,NNE,19,11.5,11.5,55,0.00,BKN,,0.00,1160.0,WeatherDisplay:10.37,2013-04-07 17:04:00,
2013-04-07 13:09:00,78.7,61.2,30.12,NNE,24,8.1,8.1,55,0.00,BKN,,0.00,417.0,WeatherDisplay:10.37,2013-04-07 17:09:00,
2013-04-07 13:14:00,79.1,61.5,30.11,NNE,22,12.7,12.7,55,0.00,BKN,,0.00,1157.0,WeatherDisplay:10.37,2013-04-07 17:14:00,
2013-04-07 13:19:00,79.9,61.8,30.11,NNE,17,13.8,13.8,54,0.00,BKN,,0.00,1123.0,WeatherDisplay:10.37,2013-04-07 17:19:00,
2013-04-07 13:25:00,78.4,59.9,30.11,NNE,19,9.6,9.6,53,0.00,BKN,,0.00,446.0,WeatherDisplay:10.37,2013-04-07 17:25:00,
2013-04-07 13:30:00,77.3,60.4,30.11,NNE,22,15.1,15.1,56,0.00,BKN,,0.00,295.0,WeatherDisplay:10.37,2013-04-07 17:30:00,
2013-04-07 13:35:00,76.2,60.3,30.11,NNE,18,12.7,12.7,58,0.00,BKN,,0.00,322.0,WeatherDisplay:10.37,2013-04-07 17:35:00,
2013-04-07 13:40:00,75.7,59.9,30.11,NNE,14,6.9,6.9,58,0.00,BKN,,0.00,262.0,WeatherDisplay:10.37,2013-04-07 17:40:00,
2013-04-07 13:45:00,75.7,60.8,30.10,NNE,18,8.1,8.1,60,0.00,BKN,,0.00,343.0,WeatherDisplay:10.37,2013-04-07 17:45:00,
2013-04-07 13:50:00,76.4,61.0,30.10,NNE,19,12.7,12.7,59,0.00,BKN,,0.00,390.0,WeatherDisplay:10.37,2013-04-07 17:50:00,
2013-04-07 13:55:00,77.2,60.8,30.10,NNE,19,9.2,9.2,57,0.00,BKN,,0.00,1158.0,WeatherDisplay:10.37,2013-04-07 17:55:00,
2013-04-07 14:00:00,78.4,62.4,30.10,NNE,18,11.5,11.5,58,0.00,BKN,,0.00,1158.0,WeatherDisplay:10.37,2013-04-07 18:00:00,
2013-04-07 14:05:00,79.5,61.9,30.10,NNE,17,11.0,11.0,55,0.00,BKN,,0.00,1078.0,WeatherDisplay:10.37,2013-04-07 18:05:00,
2013-04-07 14:10:00,79.1,61.5,30.10,NNE,22,9.6,9.6,55,0.00,BKN,,0.00,522.0,WeatherDisplay:10.37,2013-04-07 18:10:00,
2013-04-07 14:15:00,77.7,60.8,30.09,NNE,18,8.1,8.7,56,0.00,BKN,,0.00,246.0,WeatherDisplay:10.37,2013-04-07 18:15:00,
2013-04-07 14:20:00,76.6,60.7,30.09,NNE,15,9.2,9.2,58,0.00,BKN,,0.00,411.0,WeatherDisplay:10.37,2013-04-07 18:20:00,
2013-04-07 14:25:00,77.5,61.1,30.09,NNE,17,13.8,13.8,57,0.00,BKN,,0.00,411.0,WeatherDisplay:10.37,2013-04-07 18:25:00,
2013-04-07 14:30:00,77.1,61.7,30.09,NNE,18,6.9,6.9,59,0.00,BKN,,0.00,443.0,WeatherDisplay:10.37,2013-04-07 18:30:00,
2013-04-07 14:36:00,78.0,61.5,30.09,NNE,17,11.5,11.5,57,0.00,BKN,,0.00,443.0,WeatherDisplay:10.37,2013-04-07 18:36:00,
2013-04-07 14:41:00,77.1,60.7,30.09,NNE,19,12.7,12.8,57,0.00,BKN,,0.00,480.0,WeatherDisplay:10.37,2013-04-07 18:41:00,
2013-04-07 14:46:00,77.3,60.4,30.09,NNE,18,18.4,18.4,56,0.00,BKN,,0.00,373.0,WeatherDisplay:10.37,2013-04-07 18:46:00,
2013-04-07 14:51:00,76.7,59.8,30.09,NNE,16,16.1,16.1,56,0.00,BKN,,0.00,367.0,WeatherDisplay:10.37,2013-04-07 18:51:00,
2013-04-07 14:56:00,76.0,60.6,30.09,NNE,17,13.8,13.8,59,0.00,BKN,,0.00,302.0,WeatherDisplay:10.37,2013-04-07 18:56:00,
2013-04-07 15:01:00,75.8,60.9,30.08,NNE,17,12.4,12.4,60,0.00,BKN,,0.00,362.0,WeatherDisplay:10.37,2013-04-07 19:01:00,
2013-04-07 15:06:00,76.2,60.8,30.08,NNE,17,11.5,11.5,59,0.00,BKN,,0.00,512.0,WeatherDisplay:10.37,2013-04-07 19:06:00,
2013-04-07 15:11:00,76.9,60.5,30.08,NNE,21,11.0,11.0,57,0.00,BKN,,0.00,450.0,WeatherDisplay:10.37,2013-04-07 19:11:00,
2013-04-07 15:16:00,76.9,60.5,30.08,NNE,19,13.8,14.6,57,0.00,BKN,,0.00,1016.0,WeatherDisplay:10.37,2013-04-07 19:16:00,
2013-04-07 15:21:00,76.7,59.8,30.08,NNE,19,11.5,11.5,56,0.00,BKN,,0.00,338.0,WeatherDisplay:10.37,2013-04-07 19:21:00,
2013-04-07 15:26:00,75.9,60.1,30.08,NNE,17,8.1,8.1,58,0.00,BKN,,0.00,327.0,WeatherDisplay:10.37,2013-04-07 19:26:00,
2013-04-07 15:32:00,75.3,59.0,30.08,NNE,17,9.2,10.4,57,0.00,BKN,,0.00,306.0,WeatherDisplay:10.37,2013-04-07 19:32:00,
2013-04-07 15:37:00,75.4,60.5,30.08,NNE,18,11.5,12.8,60,0.00,BKN,,0.00,455.0,WeatherDisplay:10.37,2013-04-07 19:37:00,
2013-04-07 15:42:00,76.7,59.8,30.08,NNE,17,13.8,13.8,56,0.00,BKN,,0.00,942.0,WeatherDisplay:10.37,2013-04-07 19:42:00,
2013-04-07 15:48:00,77.8,60.3,30.07,NNE,17,11.5,12.0,55,0.00,BKN,,0.00,940.0,WeatherDisplay:10.37,2013-04-07 19:48:00,
2013-04-07 15:53:00,78.2,60.7,30.07,NNE,15,16.1,16.1,55,0.00,BKN,,0.00,800.0,WeatherDisplay:10.37,2013-04-07 19:53:00,
2013-04-07 15:58:00,77.6,60.2,30.07,NNE,22,11.5,11.5,55,0.00,BKN,,0.00,807.0,WeatherDisplay:10.37,2013-04-07 19:58:00,
2013-04-07 16:03:00,78.5,61.0,30.07,NNE,22,6.9,9.9,55,0.00,BKN,,0.00,796.0,WeatherDisplay:10.37,2013-04-07 20:03:00,
2013-04-07 16:08:00,78.2,60.2,30.07,NNE,19,20.7,20.7,54,0.00,BKN,,0.00,752.0,WeatherDisplay:10.37,2013-04-07 20:08:00,
2013-04-07 16:13:00,77.3,58.8,30.07,NNE,17,11.0,11.0,53,0.00,BKN,,0.00,733.0,WeatherDisplay:10.37,2013-04-07 20:13:00,
2013-04-07 16:18:00,77.3,58.8,30.06,NNE,22,15.0,15.0,53,0.00,BKN,,0.00,679.0,WeatherDisplay:10.37,2013-04-07 20:18:00,
2013-04-07 16:23:00,77.8,59.8,30.06,NNE,23,12.7,12.7,54,0.00,BKN,,0.00,664.0,WeatherDisplay:10.37,2013-04-07 20:23:00,
2013-04-07 16:28:00,78.2,59.1,30.06,NNE,19,16.1,16.4,52,0.00,BKN,,0.00,636.0,WeatherDisplay:10.37,2013-04-07 20:28:00,
2013-04-07 16:33:00,77.0,58.6,30.06,NNE,17,11.5,11.8,53,0.00,BKN,,0.00,608.0,WeatherDisplay:10.37,2013-04-07 20:33:00,
2013-04-07 16:38:00,76.7,58.8,30.06,NNE,17,11.0,11.0,54,0.00,BKN,,0.00,563.0,WeatherDisplay:10.37,2013-04-07 20:38:00,
2013-04-07 16:43:00,76.3,57.9,30.06,NNE,19,20.7,20.7,53,0.00,BKN,,0.00,475.0,WeatherDisplay:10.37,2013-04-07 20:43:00,
2013-04-07 16:48:00,75.5,57.2,30.06,NNE,18,15.0,15.0,53,0.00,BKN,,0.00,114.0,WeatherDisplay:10.37,2013-04-07 20:48:00,
2013-04-07 16:53:00,75.2,57.9,30.06,NNE,17,12.7,12.7,55,0.00,BKN,,0.00,100.0,WeatherDisplay:10.37,2013-04-07 20:53:00,
2013-04-07 16:58:00,74.7,57.5,30.06,NNE,17,11.5,11.5,55,0.00,BKN,,0.00,142.0,WeatherDisplay:10.37,2013-04-07 20:58:00,
2013-04-07 17:03:00,74.9,58.1,30.06,NNE,16,11.5,11.5,56,0.00,BKN,,0.00,181.0,WeatherDisplay:10.37,2013-04-07 21:03:00,
2013-04-07 17:08:00,74.7,58.0,30.06,NNE,17,15.0,15.0,56,0.00,BKN,,0.00,114.0,WeatherDisplay:10.37,2013-04-07 21:08:00,
2013-04-07 17:13:00,74.4,57.2,30.06,NNE,21,12.7,12.7,55,0.00,BKN,,0.00,120.0,WeatherDisplay:10.37,2013-04-07 21:13:00,
2013-04-07 17:19:00,74.3,57.1,30.06,NNE,20,11.5,12.4,55,0.00,SCT,,0.00,97.0,WeatherDisplay:10.37,2013-04-07 21:19:00,
2013-04-07 17:24:00,73.9,57.2,30.06,NNE,21,8.1,8.1,56,0.00,SCT,,0.00,178.0,WeatherDisplay:10.37,2013-04-07 21:24:00,
2013-04-07 17:29:00,74.2,57.5,30.06,NNE,19,9.2,9.3,56,0.00,SCT,,0.00,93.0,WeatherDisplay:10.37,2013-04-07 21:29:00,
2013-04-07 17:35:00,74.3,57.6,30.06,NNE,19,11.5,11.5,56,0.00,SCT,,0.00,146.0,WeatherDisplay:10.37,2013-04-07 21:35:00,
2013-04-07 17:40:00,74.1,56.9,30.06,NNE,20,13.8,13.8,55,0.00,SCT,,0.00,156.0,WeatherDisplay:10.37,2013-04-07 21:40:00,
2013-04-07 17:45:00,73.9,57.7,30.06,NNE,20,8.1,8.1,57,0.00,SCT,,0.00,237.0,WeatherDisplay:10.37,2013-04-07 21:45:00,
2013-04-07 17:50:00,73.7,57.0,30.06,NNE,18,9.2,9.2,56,0.00,SCT,,0.00,134.0,WeatherDisplay:10.37,2013-04-07 21:50:00,
2013-04-07 17:55:00,73.6,56.4,30.06,NNE,18,15.0,15.0,55,0.00,SCT,,0.00,160.0,WeatherDisplay:10.37,2013-04-07 21:55:00,
2013-04-07 18:00:00,73.0,56.4,30.06,NNE,20,9.2,9.2,56,0.00,SCT,,0.00,148.0,WeatherDisplay:10.37,2013-04-07 22:00:00,
2013-04-07 18:05:00,72.8,56.2,30.06,NNE,19,12.7,12.7,56,0.00,SCT,,0.00,62.0,WeatherDisplay:10.37,2013-04-07 22:05:00,
2013-04-07 18:10:00,72.7,56.1,30.06,NNE,17,13.8,13.8,56,0.00,SCT,,0.00,58.0,WeatherDisplay:10.37,2013-04-07 22:10:00,
2013-04-07 18:15:00,72.6,55.5,30.06,NNE,19,15.0,15.0,55,0.00,SCT,,0.00,56.0,WeatherDisplay:10.37,2013-04-07 22:15:00,
2013-04-07 18:20:00,72.6,56.0,30.06,NNE,19,11.5,11.5,56,0.00,SCT,,0.00,54.0,WeatherDisplay:10.37,2013-04-07 22:20:00,
2013-04-07 18:25:00,72.4,56.3,30.06,NNE,19,11.5,11.6,57,0.00,SCT,,0.00,51.0,WeatherDisplay:10.37,2013-04-07 22:25:00,
2013-04-07 18:31:00,72.1,56.0,30.06,NNE,19,16.1,16.1,57,0.00,SCT,,0.00,49.0,WeatherDisplay:10.37,2013-04-07 22:31:00,
2013-04-07 18:36:00,72.0,55.4,30.06,NNE,23,5.8,5.8,56,0.00,SCT,,0.00,46.0,WeatherDisplay:10.37,2013-04-07 22:36:00,
2013-04-07 18:42:00,71.8,55.7,30.06,NNE,17,5.8,5.8,57,0.00,SCT,,0.00,44.0,WeatherDisplay:10.37,2013-04-07 22:42:00,
2013-04-07 18:47:00,71.7,55.7,30.07,NNE,17,9.2,9.2,57,0.00,SCT,,0.00,42.0,WeatherDisplay:10.37,2013-04-07 22:47:00,
2013-04-07 18:52:00,71.5,55.5,30.07,NNE,19,5.8,5.8,57,0.00,SCT,,0.00,39.0,WeatherDisplay:10.37,2013-04-07 22:52:00,
2013-04-07 18:57:00,71.3,55.3,30.07,NNE,21,9.2,9.2,57,0.00,SCT,,0.00,37.0,WeatherDisplay:10.37,2013-04-07 22:57:00,
2013-04-07 19:02:00,71.1,55.1,30.06,NNE,19,6.9,6.9,57,0.00,FEW,,0.00,33.0,WeatherDisplay:10.37,2013-04-07 23:02:00,
2013-04-07 19:08:00,70.8,55.3,30.06,NNE,19,11.5,11.5,58,0.00,FEW,,0.00,30.0,WeatherDisplay:10.37,2013-04-07 23:08:00,
2013-04-07 19:13:00,70.6,55.1,30.06,NNE,18,6.9,8.2,58,0.00,FEW,,0.00,28.0,WeatherDisplay:10.37,2013-04-07 23:13:00,
2013-04-07 19:18:00,70.5,55.5,30.06,NNE,16,9.2,9.2,59,0.00,FEW,,0.00,25.0,WeatherDisplay:10.37,2013-04-07 23:18:00,
2013-04-07 19:23:00,70.2,55.2,30.06,NNE,19,8.1,8.2,59,0.00,FEW,,0.00,21.0,WeatherDisplay:10.37,2013-04-07 23:23:00,
2013-04-07 19:28:00,70.1,55.6,30.06,NNE,17,6.9,6.9,60,0.00,FEW,,0.00,18.0,WeatherDisplay:10.37,2013-04-07 23:28:00,
2013-04-07 19:33:00,69.8,55.7,30.06,NNE,19,1.1,1.1,61,0.00,FEW,,0.00,14.0,WeatherDisplay:10.37,2013-04-07 23:33:00,
2013-04-07 19:38:00,69.4,55.8,30.06,NNE,19,5.5,5.5,62,0.00,FEW,,0.00,11.0,WeatherDisplay:10.37,2013-04-07 23:38:00,
2013-04-07 19:43:00,68.9,55.8,30.06,NNE,19,4.6,4.6,63,0.00,FEW,,0.00,7.0,WeatherDisplay:10.37,2013-04-07 23:43:00,
2013-04-07 19:48:00,68.3,56.1,30.06,NNE,19,0.0,0.0,65,0.00,FEW,,0.00,0.0,WeatherDisplay:10.37,2013-04-07 23:48:00,
2013-04-07 19:53:00,67.6,55.8,30.06,NNE,19,1.1,1.1,66,0.00,FEW,,0.00,0.0,WeatherDisplay:10.37,2013-04-07 23:53:00,
2013-04-07 19:58:00,67.5,56.2,30.06,NNE,19,2.3,2.6,67,0.00,FEW,,0.00,0.0,WeatherDisplay:10.37,2013-04-07 23:58:00,
2013-04-07 20:03:00,67.2,55.9,30.06,NNE,19,2.3,0.0,67,0.00,SCT,,0.00,0.0,WeatherDisplay:10.37,2013-04-08 00:03:00,
2013-04-07 20:08:00,66.8,55.9,30.06,NNE,19,1.1,1.1,68,0.00,SCT,,0.00,0.0,WeatherDisplay:10.37,2013-04-08 00:08:00,
2013-04-07 20:13:00,66.5,56.4,30.06,NNE,19,1.1,1.1,70,0.00,SCT,,0.00,0.0,WeatherDisplay:10.37,2013-04-08 00:13:00,
2013-04-07 20:18:00,66.0,55.9,30.06,NNE,19,0.0,0.0,70,0.00,SCT,,0.00,0.0,WeatherDisplay:10.37,2013-04-08 00:18:00,
2013-04-07 20:23:00,65.2,55.9,30.06,NNE,19,0.0,0.0,72,0.00,SCT,,0.00,0.0,WeatherDisplay:10.37,2013-04-08 00:23:00,
2013-04-07 20:28:00,64.7,56.2,30.06,NNE,19,0.0,0.0,74,0.00,SCT,,0.00,0.0,WeatherDisplay:10.37,2013-04-08 00:28:00,
2013-04-07 20:33:00,64.1,56.0,30.06,NNE,19,0.0,0.0,75,0.00,SCT,,0.00,0.0,WeatherDisplay:10.37,2013-04-08 00:33:00,
2013-04-07 20:38:00,63.6,56.3,30.06,NNE,19,0.0,0.0,77,0.00,SCT,,0.00,0.0,WeatherDisplay:10.37,2013-04-08 00:38:00,
2013-04-07 20:43:00,63.2,56.2,30.06,NNE,19,0.0,0.0,78,0.00,SCT,,0.00,0.0,WeatherDisplay:10.37,2013-04-08 00:43:00,
2013-04-07 20:48:00,63.0,56.4,30.06,NNE,19,0.0,0.0,79,0.00,SCT,,0.00,0.0,WeatherDisplay:10.37,2013-04-08 00:48:00,
2013-04-07 20:54:00,62.6,56.3,30.06,NNE,19,0.0,0.0,80,0.00,SCT,,0.00,0.0,WeatherDisplay:10.37,2013-04-08 00:54:00,
2013-04-07 20:59:00,61.9,56.0,30.06,NNE,19,0.0,0.0,81,0.00,SCT,,0.00,0.0,WeatherDisplay:10.37,2013-04-08 00:59:00,
2013-04-07 21:04:00,61.6,56.0,30.06,NNE,19,0.0,0.0,82,0.00,SCT,,0.00,0.0,WeatherDisplay:10.37,2013-04-08 01:04:00,
2013-04-07 21:09:00,61.3,56.4,30.06,NNE,19,0.0,0.0,84,0.00,SCT,,0.00,0.0,WeatherDisplay:10.37,2013-04-08 01:09:00,
2013-04-07 21:14:00,61.1,56.2,30.07,NNE,19,0.0,0.0,84,0.00,SCT,,0.00,0.0,WeatherDisplay:10.37,2013-04-08 01:14:00,
2013-04-07 21:19:00,60.9,56.0,30.07,NNE,19,0.0,0.0,84,0.00,SCT,,0.00,0.0,WeatherDisplay:10.37,2013-04-08 01:19:00,
2013-04-07 21:24:00,60.7,56.2,30.07,NNE,19,0.0,0.0,85,0.00,SCT,,0.00,0.0,WeatherDisplay:10.37,2013-04-08 01:24:00,
2013-04-07 21:29:00,60.3,55.4,30.07,NNE,19,0.0,0.0,84,0.00,SCT,,0.00,0.0,WeatherDisplay:10.37,2013-04-08 01:29:00,
2013-04-07 21:34:00,60.1,55.9,30.07,NNE,19,0.0,0.0,86,0.00,SCT,,0.00,0.0,WeatherDisplay:10.37,2013-04-08 01:34:00,
2013-04-07 21:40:00,59.9,55.7,30.07,NNE,19,0.0,0.0,86,0.00,SCT,,0.00,0.0,WeatherDisplay:10.37,2013-04-08 01:40:00,
2013-04-07 21:45:00,59.7,55.8,30.07,NNE,19,0.0,0.0,87,0.00,SCT,,0.00,0.0,WeatherDisplay:10.37,2013-04-08 01:45:00,
2013-04-07 21:50:00,59.7,55.8,30.07,NNE,19,0.0,0.0,87,0.00,SCT,,0.00,0.0,WeatherDisplay:10.37,2013-04-08 01:50:00,
2013-04-07 21:55:00,59.7,56.1,30.07,NNE,19,0.0,0.0,88,0.00,SCT,,0.00,0.0,WeatherDisplay:10.37,2013-04-08 01:55:00,
2013-04-07 22:01:00,59.4,55.8,30.07,NNE,19,0.0,0.0,88,0.00,SCT,,0.00,0.0,WeatherDisplay:10.37,2013-04-08 02:01:00,
2013-04-07 22:06:00,59.3,55.7,30.07,NNE,19,0.0,0.0,88,0.00,SCT,,0.00,0.0,WeatherDisplay:10.37,2013-04-08 02:06:00,
2013-04-07 22:11:00,59.2,55.6,30.07,NNE,19,0.0,0.0,88,0.00,SCT,,0.00,0.0,WeatherDisplay:10.37,2013-04-08 02:11:00,
2013-04-07 22:17:00,59.0,55.4,30.08,NNE,19,0.0,0.0,88,0.00,FEW,,0.00,0.0,WeatherDisplay:10.37,2013-04-08 02:17:00,
2013-04-07 22:22:00,58.9,55.7,30.08,NNE,19,0.0,0.0,89,0.00,FEW,,0.00,0.0,WeatherDisplay:10.37,2013-04-08 02:22:00,
2013-04-07 22:27:00,58.8,55.6,30.08,NNE,19,0.0,0.0,89,0.00,FEW,,0.00,0.0,WeatherDisplay:10.37,2013-04-08 02:27:00,
2013-04-07 22:32:00,58.6,55.1,30.08,NNE,19,0.0,0.0,88,0.00,FEW,,0.00,0.0,WeatherDisplay:10.37,2013-04-08 02:32:00,
2013-04-07 22:37:00,58.4,55.2,30.08,NNE,19,0.0,0.0,89,0.00,FEW,,0.00,0.0,WeatherDisplay:10.37,2013-04-08 02:37:00,
2013-04-07 22:42:00,58.6,55.7,30.08,NNE,19,0.0,0.0,90,0.00,FEW,,0.00,0.0,WeatherDisplay:10.37,2013-04-08 02:42:00,
2013-04-07 22:47:00,58.6,55.4,30.08,NNE,19,0.0,0.0,89,0.00,FEW,,0.00,0.0,WeatherDisplay:10.37,2013-04-08 02:47:00,
2013-04-07 22:52:00,58.0,54.8,30.08,NNE,19,0.0,0.0,89,0.00,FEW,,0.00,0.0,WeatherDisplay:10.37,2013-04-08 02:52:00,
2013-04-07 22:57:00,58.1,55.2,30.08,NNE,19,0.0,0.0,90,0.00,FEW,,0.00,0.0,WeatherDisplay:10.37,2013-04-08 02:57:00,
2013-04-07 23:03:00,58.0,55.4,30.08,NNE,19,0.0,0.0,91,0.00,FEW,,0.00,0.0,WeatherDisplay:10.37,2013-04-08 03:03:00,
2013-04-07 23:08:00,58.0,55.4,30.08,NNE,19,0.0,0.0,91,0.00,FEW,,0.00,0.0,WeatherDisplay:10.37,2013-04-08 03:08:00,
2013-04-07 23:13:00,57.7,55.1,30.08,NNE,19,0.0,0.0,91,0.00,FEW,,0.00,0.0,WeatherDisplay:10.37,2013-04-08 03:13:00,
2013-04-07 23:18:00,57.7,55.1,30.08,NNE,19,0.0,0.0,91,0.00,FEW,,0.00,0.0,WeatherDisplay:10.37,2013-04-08 03:18:00,
2013-04-07 23:23:00,57.8,55.2,30.08,NNE,19,0.0,0.0,91,0.00,FEW,,0.00,0.0,WeatherDisplay:10.37,2013-04-08 03:23:00,
2013-04-07 23:28:00,57.7,55.1,30.08,NNE,19,0.0,0.0,91,0.00,FEW,,0.00,0.0,WeatherDisplay:10.37,2013-04-08 03:28:00,
2013-04-07 23:33:00,57.7,55.4,30.09,NNE,19,0.0,0.0,92,0.00,FEW,,0.00,0.0,WeatherDisplay:10.37,2013-04-08 03:33:00,
2013-04-07 23:38:00,57.5,55.2,30.09,NNE,19,0.0,0.0,92,0.00,FEW,,0.00,0.0,WeatherDisplay:10.37,2013-04-08 03:38:00,
2013-04-07 23:44:00,57.4,55.1,30.09,NNE,19,0.0,0.0,92,0.00,FEW,,0.00,0.0,WeatherDisplay:10.37,2013-04-08 03:44:00,
2013-04-07 23:49:00,57.3,55.0,30.08,NNE,19,0.0,0.0,92,0.00,FEW,,0.00,0.0,WeatherDisplay:10.37,2013-04-08 03:49:00,
2013-04-07 23:55:00,57.0,54.7,30.08,NNE,19,0.0,0.0,92,0.00,FEW,,0.00,0.0,WeatherDisplay:10.37,2013-04-08 03:55:00,